Location: Dunedin
(45.8670°S, 170.5000°E)
Time: 21:04:26
(UTC+12:00)

CZ-2C R/B - Pass Details

Date: 24 January 2019
Orbit: 784 x 871 km, 98.3° (Epoch: 19 April)

Event Time Altitude Azimuth Distance (km) Brightness Sun altitude
Exits shadow 23:30:02 - 335° (NNW) 2,866 5.2 -17.6°
Reaches altitude 10° 23:31:16 10° 328° (NNW) 2,461 4.9 -17.7°
Maximum altitude 23:35:43 25° 273° (W) 1,619 4.5 -18.2°
Drops below altitude 10° 23:40:10 10° 218° (SW) 2,439 6.4 -18.6°
Sets 23:42:55 0° 204° (SSW) 3,365 7.5 -18.8°
